Preview of NWS' New Version of Forecast
This preview is not operational and should not be used for support decisions.
Latest weather observations around

Monticello, Monticello Municipal Airport/Ellis Field (KLLQ)

Using English Units (Switch to International System of Units)
Date/ Time (CST) Wind (mph) Vis. (mi) Weather Sky Cond. Temp (°F) Rel. Humidity Wind Chill (°F) Heat Index (°F) Pressure Precip. (in)
Air Dwpt 6 hour Altimeter (inHg) Sea level (inHg) 1 hr 3 hr 6 hr
Max Min
Feb 25 03:53 Calm 10 Mostly Cloudy BKN075 54 49     83%     30.03 30.02      
Feb 25 02:53 NNW 5 10 Cloudy OVC065 55 52     89%     30.01 30.01      
Feb 25 01:53 Calm 10 Mostly Cloudy BKN060 55 54     96%     30.01 30.01      
Feb 25 00:53 WNW 5 10 Cloudy FEW006 OVC060 56 54     93%     30.01 30.01      
Feb 25 00:38 3 10 Cloudy SCT006 OVC060 56 53     90%     30        
Feb 24 23:53 3 10 Cloudy OVC006 55 53     93%     29.99 29.98 0   1
Feb 24 23:34 WNW 6 10 Cloudy OVC008 55 53     93%     30   0    
Feb 24 23:23 W 6 10 Cloudy BKN010 OVC090 55 53     93%     30   0    
Feb 24 22:53 Calm 7 Rain FEW070 BKN095 OVC110 55 53     93%     29.98 29.97 0    
Feb 24 21:53 W 8 8 Light Rain FEW047 BKN095 OVC110 55 52     89%     29.96 29.96 0    
Feb 24 20:53 W 9 6 Light Rain and Fog/Mist BKN040 OVC048 55 52     89%     29.93 29.92 0 1  
Feb 24 20:27 WNW 14 2.5 Heavy Rain and Fog/Mist FEW024 BKN032 OVC044 55 53     93%     29.92   0    
Feb 24 20:01 WNW 9 4 Rain and Fog/Mist FEW006 BKN036 OVC044 56 53     90%     29.91   0    
Feb 24 19:53 W 11 2.5 Rain and Fog/Mist FEW006 BKN038 OVC045 56 53     90%     29.9 29.9 0    
Feb 24 19:39 WNW 13 2.5 Heavy Rain and Fog/Mist FEW008 SCT032 OVC042 56 53     90%     29.89   0    
Feb 24 19:30 W 11 3 Rain and Fog/Mist BKN033 OVC045 56 53     90%     29.89   0    
Feb 24 19:20 WNW 14 3 Heavy Rain and Fog/Mist FEW010 BKN028 OVC038 57 54     89%     29.89   0    
Feb 24 19:13 WNW 13 2.5 Heavy Rain and Fog/Mist FEW008 BKN024 OVC033 57 54     89%     29.88   0    
Feb 24 18:53 WNW 17 5 Rain and Fog/Mist SCT011 BKN019 OVC043 59 56     90%     29.88 29.87 0    
Feb 24 18:48 WNW 15 4 Rain and Fog/Mist SCT011 BKN021 OVC043 61 57     88%     29.87   0    
Feb 24 17:53 SSW 10 10 Clear CLR 74 64     71%   74 29.81 29.8     0
Feb 24 16:53 S 14 10 Mostly Cloudy FEW039 BKN110 75 64     69%   75 29.79 29.78      
Feb 24 15:53 S 14 10 Partly Cloudy SCT110 75 65     71%   76 29.77 29.76 0    
Feb 24 14:53 S 15 10 Cloudy SCT041 BKN060 OVC110 76 64     67%   76 29.81 29.8      
Feb 24 13:53 S 10 10 Mostly Cloudy FEW038 BKN047 BKN060 76 65     69%   76 29.83 29.82      
Feb 24 12:53 S 15 10 Mostly Cloudy FEW030 SCT039 BKN050 76 65     69%   76 29.86 29.85      
Feb 24 11:53 S 16 10 Cloudy FEW023 BKN030 OVC039 75 66     74%   76 29.9 29.89     0
Feb 24 10:53 S 15 10 Cloudy BKN017 OVC025 73 66     79%   74 29.92 29.91      
Feb 24 10:38 S 11 10 Cloudy OVC015 73 67     81%   74 29.93        
Feb 24 09:53 S 11 10 Cloudy OVC012 70 67     90%     29.94 29.93 0    
Feb 24 09:19 S 10 9 Cloudy OVC010 70 67     90%     29.97   0    
Feb 24 08:53 S 7 6 Light Rain and Fog/Mist BKN008 OVC012 70 67     90%     29.98 29.97 0 0  
Feb 24 07:53 S 8 9 Cloudy OVC007 69 66     90%     29.99 29.98      
Feb 24 06:53 S 10 10 Cloudy BKN007 OVC012 68 66     93%     30 29.99      
Feb 24 05:53 S 7 10 Cloudy OVC009 68 65     90%     29.99 29.98      
Feb 24 04:53 S 6 10 Cloudy BKN009 OVC012 68 65     90%     30 29.99      
Feb 24 04:38 S 9 10 Cloudy BKN009 OVC013 68 65     90%     30.01        
Feb 24 03:53 SSW 6 10 Cloudy BKN010 OVC017 68 65     90%     30.01 30      
Feb 24 03:44 S 8 10 Cloudy OVC010 68 65     90%     30.01        
Feb 24 03:22 SSW 9 8 Cloudy BKN008 OVC013 68 65     90%     30.01        
Feb 24 03:05 SSW 8 10 Cloudy BKN010 OVC018 68 65     90%     30.01        
Feb 24 02:53 S 10 10 Cloudy BKN009 OVC018 68 65     90%     30.01 30.01      
Feb 24 02:21 SSW 8 10 Cloudy OVC007 68 65     90%     30.02        
Feb 24 01:53 S 9 10 Cloudy OVC006 68 65     90%     30.03 30.02      
Feb 24 01:12 S 7 10 Cloudy OVC005 67 64     90%     30.04        
Feb 24 00:53 S 6 10 Cloudy OVC004 66 64     93%     30.05 30.04      
Feb 24 00:35 S 6 10 Cloudy OVC004 66 64     93%     30.05        
Feb 24 00:00 SSE 7 10 Cloudy OVC005 66 63     90%     30.06        
Feb 23 23:53 SSE 7 10 Cloudy OVC004 65 63     93%     30.06 30.05      
Feb 23 22:53 ESE 6 10 Cloudy OVC004 64 62     93%     30.08 30.07      
Feb 23 22:46 ESE 5 10 Cloudy OVC005 64 62     93%     30.08        
Feb 23 22:36 SE 3 10 Cloudy OVC004 63 61     93%     30.09        
Feb 23 22:03 ENE 3 10 Cloudy BKN005 OVC012 63 61     93%     30.1        
Feb 23 21:53 NE 5 10 Cloudy SCT006 OVC012 63 60     90%     30.09 30.09      
Feb 23 21:28 E 6 10 Cloudy SCT007 OVC013 63 60     90%     30.1        
Feb 23 20:55 ENE 5 10 Cloudy BKN008 OVC017 62 60     93%     30.12        
Feb 23 20:53 ENE 5 10 Cloudy BKN011 OVC017 62 60     93%     30.12 30.11      
Feb 23 19:53 NE 3 10 Cloudy OVC012 63 60     90%     30.14 30.13      
Feb 23 19:10 NE 6 10 Cloudy OVC011 63 60     90%     30.14        
Feb 23 18:53 NE 6 10 Cloudy OVC009 63 60     90%     30.14 30.14      
Feb 23 17:53 ENE 7 10 Cloudy OVC008 64 60     87%     30.13 30.13     0
Feb 23 17:01 NE 6 10 Cloudy OVC007 65 61     87%     30.15        
Feb 23 16:53 7 10 Cloudy OVC006 65 61     87%     30.15 30.15      
Feb 23 16:04 NE 9 10 Cloudy OVC006 64 61     90%     30.15        
Feb 23 15:53 NE 6 10 Cloudy OVC007 64 61     90%     30.17 30.16      
Feb 23 15:12 ENE 8 10 Cloudy OVC009 64 60     87%     30.17        
Feb 23 14:53 ENE 10 10 Cloudy FEW006 OVC012 64 60     87%     30.17 30.16   0  
Feb 23 14:49 ENE 7 10 Cloudy FEW006 OVC012 64 61     88%     30.18        
Feb 23 13:53 NE 7 10 Cloudy OVC014 64 60     87%     30.19 30.19      
Feb 23 13:34 NE 6 10 Cloudy OVC014 64 60     87%     30.2        
Feb 23 12:53 NE 6 10 Cloudy OVC016 63 59     87%     30.22 30.22 0    
Feb 23 12:01 Calm 4 Light Rain and Fog/Mist OVC015 62 59     90%     30.26   0    
Feb 23 11:53 ENE 5 4 Rain and Fog/Mist BKN013 OVC018 62 59     90%     30.26 30.26 0   0
Feb 23 11:51 ENE 3 5 Light Rain and Fog/Mist BKN013 OVC018 63 59     88%     30.26   0    
Feb 23 11:35 NE 7 10 Cloudy FEW006 SCT014 OVC020 62 58     86%     30.27        
Feb 23 10:53 ENE 3 10 Cloudy BKN006 BKN021 OVC027 61 57     87%     30.28 30.28 0    
Feb 23 10:33 E 6 10 Cloudy FEW008 BKN022 OVC029 60 57     90%     30.29   0    
Feb 23 09:53 Calm 10 Cloudy OVC028 60 57     90%     30.28 30.28      
Feb 23 08:53 Calm 10 Cloudy OVC025 58 55     90%     30.28 30.28      
Feb 23 07:53 SE 3 9 Cloudy OVC020 53 52     96%     30.28 30.28      
Feb 23 07:17 Calm 7 Cloudy OVC016 52 51     97%     30.28        
Feb 23 06:53 Calm 3 Fog/Mist SCT002 OVC012 52 50     93%     30.28 30.27      
Feb 23 06:13 WNW 9 2 Fog/Mist OVC002 52 50     93%     30.28        
Feb 23 06:03 WNW 11 1.5 Fog/Mist OVC002 52 51     97%     30.28        
Feb 23 05:53 WNW 8 0.75 Fog/Mist VV002 54 52     93%     30.27 30.27      
Feb 23 04:53 Calm 0.75 Fog/Mist VV003 54 53     97%     30.23 30.23      
Feb 23 04:23 NW 5 1.75 Fog/Mist OVC003 55 53     93%     30.22        
Feb 23 03:53 Calm 10 Cloudy OVC004 54 52     93%     30.2 30.2      
Feb 23 03:12 Calm 10 Cloudy OVC006 53 51     93%     30.2        
Feb 23 02:53 Calm 10 Cloudy OVC007 53 51     93%     30.21 30.2      
Feb 23 02:29 Calm 8 Cloudy BKN009 BKN030 OVC040 52 50     93%     30.21        
Feb 23 01:53 Calm 10 Cloudy OVC014 52 50     93%     30.23 30.22      
Feb 23 01:49 Calm 10 Cloudy FEW003 OVC014 52 50     94%     30.23        
Feb 23 01:42 Calm 10 Mostly Cloudy FEW003 BKN015 52 50     93%     30.23        
Feb 23 01:29 Calm 9 Partly Cloudy FEW003 SCT015 51 49     92%     30.22        
Feb 23 00:53 Calm 10 Mostly Clear FEW110 52 49     89%     30.22 30.22      
Feb 23 00:16 SSE 5 9 Partly Cloudy SCT002 51 49     92%     30.22        
Feb 23 00:04 ESE 5 9 Mostly Cloudy SCT002 BKN011 51 49     92%     30.21        
Feb 22 23:53 ESE 5 6 Fog/Mist BKN002 51 49     92%     30.21 30.21      
Feb 22 23:46 ESE 3 5 Fog/Mist SCT003 51 49     92%     30.21        
Feb 22 22:53 SE 3 8 Cloudy BKN002 BKN075 OVC090 51 49     92%     30.23 30.23      
Feb 22 21:53 Calm 6 Fog/Mist OVC002 51 49     92%     30.23 30.23      
Feb 22 21:21 E 5 3 Fog/Mist OVC003 50 49     96% 48   30.23        
Feb 22 21:13 ENE 3 2.5 Fog/Mist OVC003 50 49     96% 49   30.23        
Feb 22 20:53 E 6 1.25 Fog/Mist OVC003 50 49     96% 48   30.22 30.22      
Feb 22 19:53 NE 3 1.5 Fog/Mist OVC002 50 49     96% 49   30.23 30.23      
Feb 22 19:50 NE 3 1.25 Fog/Mist OVC002 50 48     94% 49   30.23        
Feb 22 19:15 E 6 0.75 Fog/Mist VV002 50 48     93% 48   30.22        
Feb 22 18:53 ENE 5 1.75 Fog/Mist OVC002 50 48     93% 48   30.22 30.22      
Feb 22 18:51 ENE 5 1.75 Fog/Mist OVC002 50 48     94% 48   30.22        
Feb 22 17:53 ENE 6 10 Cloudy OVC002 50 48     93% 48   30.21 30.21     0
Feb 22 16:53 E 10 10 Cloudy OVC003 50 48     93% 46   30.21 30.2      
Feb 22 15:53 NE 8 10 Cloudy OVC004 50 47     89% 47   30.22 30.22      
Feb 22 14:53 NE 10 10 Cloudy OVC004 49 47     93% 45   30.23 30.23 0 0  
Feb 22 13:53 ENE 8 10 Light Rain OVC004 47 45     93% 43   30.26 30.27 0    
Feb 22 12:53 ENE 5 10 Cloudy OVC003 46 44     93% 44   30.33 30.33      
Feb 22 11:53 NE 10 5 Fog/Mist OVC003 45 43     93% 40   30.34 30.34      
Feb 22 10:53 NE 8 10 Cloudy OVC004 44 42     93% 40   30.35 30.35      
Feb 22 09:53 NE 11 9 Cloudy OVC003 44 41     89% 38   30.34 30.34      
Feb 22 09:20 NNE 5 4 Fog/Mist OVC003 43 41     93% 40   30.34        
Feb 22 08:53 NNE 6 2.5 Fog/Mist OVC003 42 41     96% 38   30.35 30.35      
Feb 22 08:40 3 2 Fog/Mist OVC003 42 40     92% 40   30.35        
Feb 22 08:16 5 3 Fog/Mist OVC003 42 40     92% 39   30.34        
Feb 22 07:53 NNW 5 2.5 Fog/Mist OVC003 42 41     96% 39   30.33 30.33      
Feb 22 07:44 NNE 3 2 Fog/Mist OVC003 42 40     92% 40   30.33        
Feb 22 07:23 6 3 Fog/Mist OVC002 42 40     92% 38   30.32        
Feb 22 07:02 3 1.75 Fog/Mist OVC002 43 41     93% 41   30.32        
Feb 22 06:53 6 2 Fog/Mist OVC002 43 41     93% 39   30.3 30.3      
Feb 22 05:53 6 2 Fog/Mist OVC003 43 42     97% 39   30.27 30.27 0   1
Feb 22 04:53 3 6 Rain and Fog/Mist OVC003 44 42     93% 43   30.26 30.25 0    
Feb 22 03:53 6 10 Light Rain BKN004 OVC013 44 42     93% 41   30.23 30.23 0    
Feb 22 03:49 3 10 Light Rain BKN006 OVC015 45 43     93% 43   30.24   0    
Jun 12 05:48 SSE 7 10 Cloudy OVC009 75 73     94%   77 30.03        
Jun 12 03:11 SE 3 10 Cloudy OVC009 74 71     91%   75 30        
Jun 11 22:53 SSE 6 10 Clear CLR 76 70     82%   77 30.02 30.01      
Jun 11 14:53 5 10 Mostly Clear FEW039 88 69     54%   92 30.02 30.01      
Jun 11 01:53 SSE 5 10 Clear CLR 70 64     81%     29.99        
Jun 08 02:53 3 10 Clear CLR 63 56     78%     29.95 29.94      
Jun 07 21:53 Calm 10 Clear CLR 67 59     76%     29.95 29.94      
Jun 07 20:53 NNW 3 10 Clear CLR 68 60     76%     29.94 29.93      
Jun 07 10:53 NE 13 10 Clear CLR 80 56     44%   80 29.95 29.94      
Jun 06 12:26 ENE 18 10 Partly Cloudy FEW019 SCT025 82 72     72%   87 29.79